Tracking 29494 objects as of 8-Sep-2024
HD Live streaming from Space Station
objects crossing your sky now

HOT BIRD 1

Track HOT BIRD 1 now!
HOT BIRD 1 is classified as:


NORAD ID: 23537
Int'l Code: 1995-016B
Perigee: 36,038.7 km
Apogee: 36,086.7 km
Inclination: 12.3 °
Period: 1,449.9 minutes
Semi major axis: 42433 km
RCS: 7.9621 m2 (large)
Launch date: March 28, 1995
Source: European Telecommunications Satellite Organization (EUTE)
Launch site: FRENCH GUIANA (FRGUI)

Cable programming; direct-to-home broadcasting; 16 channels, Western Europe
Your satellite tracking list
Your tracking list is empty




NASA's NSSDC Master Catalog

Two Line Element Set (TLE):
1 23537U 95016B   24250.68313531 -.00000283  00000-0  00000-0 0  9998
2 23537  12.2757  27.2885 0005654 101.6231 259.0577  0.99319860107268
Source of the keplerian elements: AFSPC